Home   Weather   Poznan   Past weeks

Flag for Poland Past Weather in Poznan, Poland — Yesterday and Last 2 Weeks

Now
66 °F

Sunny.


Feels Like: 66 °F
Forecast: 56 / 67 °F
Wind: 12 mph from Southeast

Location: Poznan Airport

Current Time: Oct 1, 2016 at 3:49:32 PM

Latest Report: Oct 1, 2016 at 3:30 PM


Visibility: 10 mi

Pressure: 29.86 "Hg

Humidity: 60%

Dew Point: 52 °F

Location of PoznanLocation

Past Weather in Poznan — Graph

°F

Poznan Temperature Yesterday

Maximum temperature yesterday: 64 °F (at 12:00 AM)
Minimum temperature yesterday: 57 °F (at 8:30 PM)
Average temperature yesterday: 61 °F

High & Low Weather Summary for the Past Weeks

 TemperatureHumidityPressure
High81 °F (Sep 16, 3:00 PM)100% (Oct 1, 1:30 AM)30.33 "Hg (Oct 1, 1:30 AM)
Low41 °F (Sep 22, 3:30 AM)34% (Sep 19, 3:30 PM)29.83 "Hg (Sep 30, 12:30 AM)
Average58 °F65%30.10 "Hg
* Reported Sep 16 3:00 PM — Oct 1 3:00 PM, Poznan, Weather by CustomWeather, © 2016

Note: Actual official high and low records may vary slightly from our data, if they occured in-between our weather recording intervals... More about our weather records

Advertising

Poznan Weather History for the Previous 24 Hours

Scroll right to see more
 ConditionsComfort  
Time TempWeatherWind HumidityBarometerVisibility
3:00 PM
Sat, Oct 1
64 °FSunny.12 mph68%29.89 "Hg10 mi
2:30 PM64 °FSunny.10 mph68%29.89 "Hg10 mi
2:00 PM64 °FSunny.10 mph68%29.92 "Hg10 mi
1:30 PM64 °FSunny.9 mph64%29.92 "Hg10 mi
1:00 PM64 °FSunny.8 mph64%29.92 "Hg10 mi
12:30 PM63 °FPassing clouds.9 mph68%29.95 "HgN/A
12:00 PM61 °FScattered clouds.8 mph72%29.95 "HgN/A
11:30 AM61 °FPartly sunny.6 mph77%29.95 "HgN/A
11:00 AM59 °FPartly sunny.7 mph82%29.95 "HgN/A
10:30 AM57 °FSunny.7 mph88%29.98 "Hg10 mi
10:00 AM55 °FClear.3 mph100%29.98 "Hg4 mi
9:30 AM54 °FFog.3 mph100%29.98 "Hg3 mi
9:00 AM52 °FFog.1 mph94%29.98 "Hg2 mi
8:30 AM50 °FFog.2 mph100%29.98 "Hg1 mi
8:00 AM48 °FFog.1 mph100%29.98 "Hg0 mi
7:30 AM48 °FFog.2 mph100%29.95 "Hg0 mi
7:00 AM48 °FFog.1 mph100%29.95 "Hg0 mi
6:30 AM48 °FFog.2 mph100%29.95 "Hg1 mi
6:00 AM48 °FFog.1 mph100%29.95 "Hg1 mi
5:30 AM48 °FFog.1 mph100%29.95 "Hg0 mi
5:00 AM48 °FFog.2 mph100%29.95 "Hg0 mi
4:30 AM46 °FFog.3 mph100%29.95 "Hg1 mi
4:00 AM48 °FFog.3 mph100%29.95 "Hg0 mi
3:30 AM48 °FFog.No wind100%29.98 "Hg0 mi
3:00 AM50 °FFog.2 mph94%29.98 "Hg0 mi
2:30 AM52 °FCool.3 mph100%29.98 "Hg2 mi
2:00 AM52 °FCool.3 mph94%29.98 "Hg3 mi
1:30 AM52 °FClear.2 mph100%29.98 "Hg10 mi
1:00 AM54 °FClear.2 mph94%29.98 "Hg10 mi
12:30 AM54 °FClear.2 mph94%29.98 "Hg10 mi
12:00 AM55 °FClear.6 mph88%29.98 "Hg10 mi
11:30 PM
Fri, Sep 30
57 °FClear.6 mph82%29.98 "Hg10 mi
11:00 PM57 °FClear.6 mph88%29.98 "Hg10 mi
10:30 PM57 °FClear.7 mph88%29.95 "Hg10 mi
10:00 PM57 °FClear.7 mph88%29.95 "Hg10 mi
9:30 PM57 °FClear.5 mph88%29.95 "Hg10 mi
9:00 PM57 °FLight rain. Clear.7 mph88%29.95 "HgN/A
8:30 PM57 °FLight rain. Clear.8 mph88%29.95 "HgN/A
8:00 PM59 °FLight rain. Clear.7 mph82%29.95 "HgN/A
7:30 PM59 °FLight rain. Passing clouds.3 mph82%29.95 "HgN/A
7:00 PM59 °FClear.5 mph77%29.92 "Hg10 mi
6:30 PM61 °FClear.5 mph72%29.92 "Hg10 mi
6:00 PM61 °FPartly sunny.6 mph72%29.92 "HgN/A
5:30 PM61 °FPartly sunny.7 mph72%29.92 "HgN/A
5:00 PM61 °FPartly sunny.9 mph72%29.92 "HgN/A
4:30 PM63 °FPartly sunny.7 mph64%29.92 "HgN/A
4:00 PM63 °FPartly sunny.7 mph64%29.92 "HgN/A
3:30 PM63 °FPartly sunny.8 mph64%29.95 "HgN/A
3:00 PM63 °FPartly sunny.8 mph64%29.95 "HgN/A
Weather by CustomWeather, © 2016

See weather overviewHow to use our weather pages